This is the latest recevied weather packets stored in our database for station/object KC0UFP. If no packets are shown the sender has not sent any weather packets the latest 10 day(s).
| Time | Temp. | Humidity | Pressure | Rain* | Wind** | Luminosity | Snow |
|---|---|---|---|---|---|---|---|
| 1777846683 | 22.78° C | 34% | 1014.7 hPa | 0 mm | - | 420 W/m² | - |
| 1777846381 | 22.78° C | 35% | 1014.8 hPa | 0 mm | - | 441 W/m² | - |
| 1777846077 | 23.33° C | 34% | 1014.9 hPa | 0 mm | - | 470 W/m² | - |
| 1777845774 | 23.33° C | 34% | 1014.7 hPa | 0 mm | - | 492 W/m² | - |
| 1777845471 | 22.78° C | 35% | 1014.7 hPa | 0 mm | - | 512 W/m² | - |
| 1777845168 | 22.78° C | 35% | 1014.8 hPa | 0 mm | - | 535 W/m² | - |
| 1777844866 | 22.78° C | 34% | 1014.9 hPa | 0 mm | - | 557 W/m² | - |
| 1777844563 | 22.78° C | 34% | 1015.2 hPa | 0 mm | - | 579 W/m² | - |
| 1777844261 | 22.78° C | 34% | 1015.1 hPa | 0 mm | - | 600 W/m² | - |
| 1777843958 | 22.78° C | 34% | 1015.4 hPa | 0 mm | - | 620 W/m² | - |
| 1777843654 | 22.78° C | 34% | 1015.3 hPa | 0 mm | - | 641 W/m² | - |
| 1777843352 | 22.78° C | 32% | 1015.4 hPa | 0 mm | - | 657 W/m² | - |
| 1777843050 | 22.78° C | 33% | 1015.4 hPa | 0 mm | - | 676 W/m² | - |
| 1777842746 | 22.78° C | 33% | 1015.7 hPa | 0 mm | - | 691 W/m² | - |
| 1777842441 | 22.78° C | 33% | 1015.6 hPa | 0 mm | - | 707 W/m² | - |
| 1777842139 | 22.22° C | 32% | 1015.9 hPa | 0 mm | - | 724 W/m² | - |
| 1777841834 | 22.22° C | 32% | 1016 hPa | 0 mm | - | 742 W/m² | - |
| 1777841531 | 22.22° C | 31% | 1016 hPa | 0 mm | - | 757 W/m² | - |
| 1777841227 | 22.22° C | 32% | 1016.1 hPa | 0 mm | - | 773 W/m² | - |
| 1777840925 | 22.22° C | 32% | 1016 hPa | 0 mm | - | 788 W/m² | - |
| 1777840622 | 22.22° C | 33% | 1016.2 hPa | 0 mm | - | 803 W/m² | - |
| 1777840319 | 22.78° C | 33% | 1016.6 hPa | 0 mm | - | 819 W/m² | - |
| 1777840016 | 22.22° C | 31% | 1016.6 hPa | 0 mm | - | 833 W/m² | - |
| 1777839714 | 22.22° C | 31% | 1016.8 hPa | 0 mm | - | 847 W/m² | - |
| 1777839412 | 22.22° C | 32% | 1016.7 hPa | 0 mm | - | 862 W/m² | - |
* Rain latest hour (hover to see other rain measurements)
** Current wind speed in m/s (hover to see current wind gust speed)